This is the latest recevied weather packets stored in our database for station/object F1ZVN-13. If no packets are shown the sender has not sent any weather packets the latest 10 day(s).
| Time | Temp. | Humidity | Pressure | Rain* | Wind** | Luminosity | Snow |
|---|---|---|---|---|---|---|---|
| 1777555506 | 8.89° C | 84% | 1009.6 hPa | 0 mm | 0 m/s | - | - |
| 1777555388 | 8.89° C | 82% | 1009.6 hPa | 0 mm | 0 m/s | - | - |
| 1777555298 | 9.44° C | 84% | 1009.6 hPa | 0 mm | 0 m/s | - | - |
| 1777555263 | 9.44° C | 84% | 1009.6 hPa | 0 mm | 0 m/s | - | - |
| 1777555022 | 9.44° C | 86% | 1009.7 hPa | 0 mm | 0 m/s | - | - |
| 1777554903 | 9.44° C | 86% | 1009.7 hPa | 0 mm | 0 m/s | - | - |
| 1777554777 | 9.44° C | 87% | 1009.7 hPa | 0 mm | 0 m/s | - | - |
| 1777554657 | 9.44° C | 87% | 1009.8 hPa | 0 mm | 0 m/s | - | - |
| 1777554543 | 9.44° C | 87% | 1009.7 hPa | 0 mm | 0 m/s | - | - |
| 1777554416 | 8.89° C | 86% | 1009.8 hPa | 0 mm | 0 m/s | - | - |
| 1777554298 | 8.89° C | 88% | 1009.8 hPa | 0 mm | 0 m/s | - | - |
| 1777554051 | 8.89° C | 90% | 1010 hPa | 0 mm | 0 m/s | - | - |
| 1777553930 | 8.33° C | 88% | 1009.8 hPa | 0 mm | 0 m/s | - | - |
| 1777553808 | 8.33° C | 88% | 1009.8 hPa | 0 mm | 0 m/s | - | - |
| 1777553689 | 8.33° C | 88% | 1009.8 hPa | 0 mm | 0 m/s | - | - |
| 1777553450 | 8.33° C | 88% | 1010 hPa | 0 mm | 0 m/s | - | - |
| 1777553082 | 8.33° C | 90% | 1010.1 hPa | 0 mm | 0 m/s | - | - |
| 1777552844 | 8.33° C | 80% | 1010 hPa | 0 mm | 0 m/s | - | - |
| 1777552724 | 8.33° C | 80% | 1010 hPa | 0 mm | 0 m/s | - | - |
| 1777552595 | 8.33° C | 84% | 1010.1 hPa | 0 mm | 0 m/s | - | - |
| 1777552477 | 8.33° C | 89% | 1010 hPa | 0 mm | 0 m/s | - | - |
| 1777552354 | 8.33° C | 89% | 1010.1 hPa | 0 mm | 0 m/s | - | - |
| 1777552235 | 8.33° C | 90% | 1010.1 hPa | 0 mm | 0 m/s | - | - |
| 1777552114 | 8.33° C | 90% | 1010.1 hPa | 0 mm | 0 m/s | - | - |
| 1777551994 | 8.33° C | 87% | 1010.1 hPa | 0 mm | 0 m/s | - | - |
* Rain latest hour (hover to see other rain measurements)
** Current wind speed in m/s (hover to see current wind gust speed)